This demonstration page uses our WeatherBlox Daily Observations layout. Learn more.

Left ArrowRight Arrow

39.01783, -85.05884

Hourly Observations for December 2, 2022

Temp ( °F °C ) Dew Point ( °F °C ) Humidity (%) Winds ( mph kmh ) Pressure ( in mb ) Visibility ( mi km ) Precip ( " mm )
12:52 am 00:52 Clear 30 -1.1 18 -7.8 60 60 SSE 7 11 30.36 1028 10 16 0.00 0.00
1:52 am 01:52 Clear 29 -1.7 18 -7.8 63 63 SSE 9 15 30.34 1027 10 16 0.00 0.00
2:52 am 02:52 Cloudy 32 0 19 -7.2 58 58 SSE 10 17 30.32 1027 10 16 0.00 0.00
3:52 am 03:52 Cloudy 33 0.6 19 -7.2 56 56 SE 9 15 30.32 1027 10 16 0.00 0.00
4:52 am 04:52 Cloudy 33 0.6 20 -6.7 58 58 S 10 17 30.30 1026 10 16 0.00 0.00
5:52 am 05:52 Cloudy 34 1.1 20 -6.7 56 56 S 10 17 30.30 1026 10 16 0.00 0.00
6:52 am 06:52 Cloudy 34 1.1 21 -6.1 59 59 S 8 13 30.29 1026 10 16 0.00 0.00
7:52 am 07:52 Cloudy 35 1.7 21 -6.1 56 56 S 8 13 30.30 1026 10 16 0.00 0.00
8:52 am 08:52 Mostly Cloudy 38 3.3 22 -5.6 52 52 S 12 19 30.28 1026 10 16 0.00 0.00
9:52 am 09:52 Cloudy 42 5.6 24 -4.4 48 48 S 13 20 30.27 1025 10 16 0.00 0.00
10:52 am 10:52 Cloudy 45 7.2 25 -3.9 45 45 SSW 14 22 30.26 1025 10 16 0.00 0.00
11:52 am 11:52 Cloudy 47 8.3 26 -3.3 44 44 SSW 13 20 30.22 1023 10 16 0.00 0.00
12:52 pm 12:52 Cloudy 50 10 27 -2.8 40 40 SSW 16 26 30.16 1021 10 16 0.01 0.13
1:52 pm 13:52 Mostly Cloudy 55 12.8 29 -1.7 36 36 S 16 26 30.11 1020 10 16 0.00 0.00
2:52 pm 14:52 Mostly Cloudy 58 14.4 28 -2.2 32 32 S 18 30 30.08 1019 10 16 0.00 0.00
3:52 pm 15:52 Cloudy 56 13.3 28 -2.2 34 34 SSW 21 33 30.07 1018 10 16 0.00 0.00
4:52 pm 16:52 Cloudy 56 13.3 32 0 40 40 S 16 26 30.06 1018 10 16 0.00 0.00
5:52 pm 17:52 Cloudy 55 12.8 36 2.2 48 48 S 18 30 30.05 1018 10 16 0.01 0.13
6:52 pm 18:52 Cloudy with Light Rain 52 11.1 43 6.1 71 71 S 15 24 30.05 1018 8 13 0.02 0.51
7:52 pm 19:52 Cloudy with Light Rain 52 11.1 45 7.2 77 77 S 17 28 30.04 1017 10 16 0.01 0.13
8:52 pm 20:52 Cloudy with Light Rain 53 11.7 45 7.2 74 74 S 22 35 30.01 1016 9 14 0.01 0.13
9:52 pm 21:52 Cloudy 54 12.2 45 7.2 71 71 S 22 35 29.97 1015 10 16 0.01 0.13
10:52 pm 22:52 Cloudy with Light Rain 53 11.7 47 8.3 80 80 SSW 16 26 29.98 1015 10 16 0.01 0.13
11:52 pm 23:52 Cloudy with Light Rain 54 12.2 46 7.8 74 74 SSW 21 33 29.95 1014 10 16 0.01 0.13

Powered by AerisWeather